Location: Newark
(44.3248°N, 23.7839°E)
Time: 00:41:13
(UTC+00:00)

STARS - Visible Passes

Search period start: 24 April 2024 00:00
Search period end: 04 May 2024 00:00
Orbit: 608 x 620 km, 98.1° (Epoch: 23 April)

Date Brightness Start Highest point End Pass type
(mag) Time Alt. Az. Time Alt. Az. Time Alt. Az.
24 Apr ? 21:41:39 10° NE 21:42:28 14° NE 21:42:28 14° NE visible
24 Apr ? 23:17:17 10° N 23:19:30 24° NNW 23:19:30 24° NNW visible
25 Apr ? 21:56:41 10° NNE 21:58:06 19° NE 21:58:06 19° NE visible
25 Apr ? 23:32:58 10° NNW 23:35:08 21° NW 23:35:08 21° NW visible
26 Apr ? 22:11:51 10° NNE 22:13:43 24° NE 22:13:43 24° NE visible
26 Apr ? 23:48:48 10° NNW 23:50:45 16° NW 23:50:45 16° NW visible
27 Apr ? 22:27:06 10° NNE 22:29:19 30° NNE 22:29:19 30° NNE visible
28 Apr ? 00:04:58 10° NW 00:06:21 12° NW 00:06:21 12° NW visible
28 Apr ? 22:42:25 10° N 22:44:54 34° N 22:44:54 34° N visible
29 Apr ? 21:23:14 10° NE 21:23:25 11° ENE 21:23:25 11° ENE visible
29 Apr ? 22:57:49 10° N 23:00:28 34° NNW 23:00:28 34° NNW visible
30 Apr ? 21:37:52 10° NE 21:38:58 15° NE 21:38:58 15° NE visible
30 Apr ? 23:13:17 10° N 23:16:00 30° NNW 23:16:00 30° NNW visible
01 May ? 21:52:45 10° NE 21:54:30 20° NE 21:54:30 20° NE visible
01 May ? 23:28:50 10° N 23:31:32 24° NW 23:31:32 24° NW visible
02 May ? 22:07:47 10° NNE 22:10:01 27° NE 22:10:01 27° NE visible
02 May ? 23:44:30 10° NNW 23:47:03 19° NW 23:47:03 19° NW visible
03 May ? 22:22:54 10° NNE 22:25:31 35° NNE 22:25:31 35° NNE visible
